Вернуться в каталог

FENGYUN 1C DEB

АктивенSSO
NORAD 30169·DEBRIS·🇨🇳 China

Запущен May 10, 1999 с Taiyuan Satellite Launch Center

Loading…

Ближайшие Пролёты (ближайшие 24 часа)

TLE

СвежийSource: Space-Track

Эпоха: Sep 14, 2026, 11:38 UTC

1 30169U 99025UA  26257.48500038  .00008960  00000-0  12809-2 0  9999
2 30169  98.3133 334.0041 0195079  87.6650 287.4608 14.64639072 17461

Отслеживайте FENGYUN 1C DEB в реальном времени с AllMySat

Download on the App Store